Voltar ao catálogo

FENGYUN 1C DEB

AtivoSSO
NORAD 31172·DEBRIS·🇨🇳 China

Lançado May 10, 1999 de Taiyuan Satellite Launch Center

Loading…

Próximas Passagens (próximas 24 horas)

TLE

AtualizadoSource: Space-Track

Época: Sep 14, 2026, 10:45 UTC

1 31172U 99025BJA 26257.44807594  .00000131  00000-0  58377-4 0  9991
2 31172  98.4303 258.9995 0148938 171.5007 188.8753 14.31724150 15637

Acompanhe FENGYUN 1C DEB em tempo real com AllMySat

Download on the App Store